ENDUROSAT ONE (43551 NORAD) Tracking and Keplerian Element Data

This shows tracking and keplerian element data for the satellite.

Feedback or suggestion? Click here.




ElementValue
Catalog43551
NameENDUROSAT ONE
Epoch Orbit1994
Epoch Day322.44774269
Epoch Year2018
RAAN328.0691
Inclination51.6393
Eccentricity0.0007302
Argument of Perigee67.5956
Mean Anonmoly292.5809
Mean Motion15.57291938
Decay Rate0.0001029
L11 43551U 98067NZ 18322.44774269 .00010290 00000-0 14473-3 0 9991
L22 43551 51.6393 328.0691 0007302 67.5956 292.5809 15.57291938 19944

Live tracking and technical data element details for ENDUROSAT ONE (NORAD 43551). ENDUROSAT ONE can be tracked NOW for your location showing map with azimuth and elevation plus other details from your city location.

Track the satellite on the map from your city or location and see movement details for azimuth, elevation, latitude, longitude, range, height, and movement on the map or in text.







IsCatalogInMostPopularTable: catalog: 43551, numindb: 56
Update: records affected: 1



GetName: 43551 ENDUROSAT ONE

Hit Count: updated at: Tue, 20 Nov 2018 11:24:06 GMT